Location: Cardiff
(53.7833°N, 113.6000°W)
Time: 07:44:13
(UTC+00:00)

XW-2B - Visible Passes

Search period start: 03 December 2023 00:00
Search period end: 13 December 2023 00:00
Orbit: 456 x 465 km, 97.5° (Epoch: 02 December)

Date Brightness Start Highest point End Pass type
(mag) Time Alt. Az. Time Alt. Az. Time Alt. Az.
03 Dec ? 01:09:39 10° SSE 01:13:08 88° ENE 01:16:40 10° NNW visible
03 Dec ? 13:59:36 10° NNE 14:02:55 38° E 14:06:11 10° SSE visible
04 Dec ? 00:38:13 10° SE 00:41:29 39° ENE 00:44:47 10° N visible
04 Dec ? 02:11:57 10° SW 02:14:36 20° W 02:17:17 10° NW visible
04 Dec ? 13:28:27 10° NE 13:30:57 18° E 13:33:27 10° SE visible
05 Dec ? 00:07:19 10° ESE 00:09:55 20° ENE 00:12:33 10° NNE visible
05 Dec ? 01:39:19 10° S 01:42:39 43° W 01:46:01 10° NNW visible
05 Dec ? 14:28:53 10° NNE 14:32:24 81° ESE 14:35:53 10° SSW visible
06 Dec ? 01:07:19 10° SSE 01:10:47 83° ENE 01:14:18 10° NNW visible
06 Dec ? 02:43:32 10° W 02:44:16 10° W 02:45:00 10° WNW visible
06 Dec ? 13:57:13 10° NNE 14:00:29 35° E 14:03:42 10° SSE visible
07 Dec ? 00:35:47 10° SE 00:39:01 37° ENE 00:42:16 10° N visible
07 Dec ? 02:09:20 10° SW 02:12:05 22° W 02:14:52 10° NW visible
07 Dec ? 13:25:59 10° NE 13:28:23 17° E 13:30:44 10° SE visible
08 Dec ? 00:04:49 10° ESE 00:07:20 19° ENE 00:09:51 10° NNE visible
08 Dec ? 01:36:39 10° S 01:40:00 46° W 01:43:24 10° NNW visible
08 Dec ? 14:26:11 10° NNE 14:29:41 75° ESE 14:33:09 10° S visible
09 Dec ? 01:04:34 10° SSE 01:08:02 76° ENE 01:11:32 10° NNW visible
09 Dec ? 02:40:17 10° WSW 02:41:28 11° W 02:42:38 10° WNW visible
09 Dec ? 13:54:26 10° NNE 13:57:37 32° E 14:00:47 10° SSE visible
10 Dec ? 00:32:58 10° SE 00:36:08 34° ENE 00:39:20 10° N visible
10 Dec ? 02:06:20 10° SSW 02:09:09 23° W 02:12:01 10° NW visible
10 Dec ? 13:23:09 10° NE 13:25:22 16° E 13:27:35 10° SE visible
10 Dec ? 14:55:12 10° N 14:58:36 51° WNW 15:01:59 10° SSW visible
11 Dec ? 00:01:57 10° ESE 00:04:20 18° ENE 00:06:45 10° NNE visible
11 Dec ? 01:33:35 10° S 01:36:58 50° W 01:40:23 10° NNW visible
11 Dec ? 14:23:05 10° NNE 14:26:34 68° ESE 14:30:02 10° S visible
12 Dec ? 01:01:25 10° SSE 01:04:52 69° ENE 01:08:21 10° N visible
12 Dec ? 02:36:45 10° WSW 02:38:14 12° W 02:39:45 10° WNW visible
12 Dec ? 13:51:15 10° NNE 13:54:22 30° E 13:57:27 10° SSE visible
